Weather History for Grand Canyon, AZ

Change the Weather History Date:

Sunday, February 3, 2013

  Actual Average Record
Temperature  
Mean Temperature 34 °F -  
Max Temperature 43 °F 42 °F 61 °F (1980)
Min Temperature 24 °F 14 °F -1 °F (1990)
Degree Days  
Heating Degree Days 30    
Moisture  
Dew Point 29 °F    
Average Humidity 76    
Maximum Humidity 92    
Minimum Humidity 45    
Precipitation  
Precipitation 0.00 in - - ()
Sea Level Pressure  
Sea Level Pressure 30.15 in    
Wind  
Wind Speed 1 mph (NW)    
Max Wind Speed 5 mph    
Max Gust Speed -    
Visibility 10 miles    
Events Rain    
Averages and records for this station are not official NWS values.
T = Trace of Precipitation, MM = Missing Value Source: NWS Daily Summary

Daily Weather History Graph

Daily Weather History Graph

Search for Another Location

Airport:

Trip Planner

Search our weather history database for the weather conditions in past years. The results will help you decide how hot, cold, wet, or windy it might be!

Date:

Astronomy

Feb. 03, 2013 Rise Set
Actual Time 7:27 AM MST 5:58 PM MST
Civil Twilight 7:00 AM MST 6:24 PM MST
Nautical Twilight 6:29 AM MST 6:55 PM MST
Astronomical Twilight 5:59 AM MST 7:25 PM MST
Moon 12:58 AM MST (2/3) 11:39 AM MST (2/3)
Length of Visible Light 11h 24m
Length of Day
10h 30m
Waning Gibbous, 48% of the Moon is Illuminated
Feb 3
Waning Gibbous
Feb 10
New
Feb 17
First Quarter
Feb 25
Full
Mar 4
Last Quarter

Hourly Weather History & Observations

Time (MST) Temp. Windchill Dew Point Humidity Pressure Visibility Wind Dir Wind Speed Gust Speed Precip Events Conditions
12:54 AM 30.0 °F 26.5 °F 23.0 °F 75% 30.23 in 10.0 mi ENE 3.5 mph - N/A   Partly Cloudy
1:54 AM 33.1 °F - 24.1 °F 70% 30.19 in 10.0 mi Calm Calm - N/A   Partly Cloudy
2:54 AM 30.0 °F - 23.0 °F 75% 30.19 in 10.0 mi Calm Calm - N/A   Partly Cloudy
3:54 AM 30.0 °F - 24.1 °F 79% 30.16 in 10.0 mi Calm Calm - N/A   Scattered Clouds
4:54 AM 30.0 °F - 24.1 °F 79% 30.15 in 10.0 mi Calm Calm - N/A   Mostly Cloudy
5:54 AM 30.0 °F - 24.1 °F 79% 30.17 in 10.0 mi Calm Calm - N/A   Overcast
6:54 AM 32.0 °F - 25.0 °F 75% 30.16 in 10.0 mi Calm Calm - N/A   Overcast
7:54 AM 43.0 °F 40.3 °F 23.0 °F 45% 30.14 in 10.0 mi West 4.6 mph - N/A   Overcast
8:54 AM 41.0 °F - 21.9 °F 47% 30.18 in 10.0 mi Calm Calm - N/A   Overcast
9:54 AM 39.9 °F 37.8 °F 28.9 °F 65% 30.20 in 10.0 mi West 3.5 mph - 0.00 in   Overcast
10:42 AM 39.2 °F - 32.0 °F 75% 30.24 in 6.0 mi Calm Calm - 0.00 in Rain Light Rain
10:54 AM 37.9 °F 34.4 °F 33.1 °F 83% 30.22 in 6.0 mi West 4.6 mph - 0.00 in Rain Light Rain
11:10 AM 37.4 °F - 33.8 °F 87% 30.23 in 10.0 mi Calm Calm - 0.00 in Rain Light Rain
11:38 AM 37.4 °F - 33.8 °F 87% 30.22 in 10.0 mi Calm Calm - 0.00 in Rain Light Rain
11:54 AM 37.9 °F - 33.1 °F 83% 30.19 in 10.0 mi Calm Calm - 0.00 in   Overcast
12:54 PM 39.0 °F - 33.1 °F 79% 30.14 in 10.0 mi Calm Calm - N/A   Overcast
1:01 PM 39.2 °F - 33.8 °F 81% 30.17 in 10.0 mi Calm Calm - N/A   Overcast
1:54 PM 41.0 °F - 33.1 °F 73% 30.09 in 10.0 mi Calm Calm - 0.00 in   Overcast
2:01 PM 41.0 °F - 32.0 °F 70% 30.13 in 10.0 mi Calm Calm - N/A   Overcast
2:54 PM 41.0 °F - 32.0 °F 70% 30.07 in 10.0 mi Calm Calm - N/A   Overcast
3:11 PM 42.8 °F 41.1 °F 32.0 °F 66% 30.11 in 10.0 mi NE 3.5 mph - N/A   Overcast
3:49 PM 42.8 °F - 32.0 °F 66% 30.12 in 10.0 mi Calm Calm - N/A   Overcast
3:54 PM 42.1 °F 39.2 °F 32.0 °F 67% 30.08 in 10.0 mi NNW 4.6 mph - N/A   Overcast
4:54 PM 39.9 °F - 32.0 °F 73% 30.09 in 10.0 mi Calm Calm - N/A   Overcast
5:32 PM 39.2 °F - 32.0 °F 75% 30.12 in 10.0 mi Calm Calm - N/A   Overcast
5:54 PM 39.0 °F - 32.0 °F 76% 30.09 in 10.0 mi Calm Calm - N/A   Mostly Cloudy
6:54 PM 34.0 °F - 30.9 °F 89% 30.13 in 10.0 mi Calm Calm - N/A   Scattered Clouds
7:54 PM 28.9 °F - 27.0 °F 92% 30.10 in 10.0 mi Calm Calm - N/A   Clear
8:54 PM 28.0 °F - 25.0 °F 88% 30.11 in 10.0 mi Calm Calm - N/A   Clear
9:54 PM 27.0 °F - 24.1 °F 89% 30.12 in 10.0 mi Calm Calm - N/A   Clear
10:54 PM 26.1 °F - 23.0 °F 88% 30.13 in 10.0 mi Calm Calm - N/A   Clear
11:54 PM 24.1 °F - 21.0 °F 88% 30.14 in 10.0 mi Calm Calm - N/A   Clear